�N����,����,�~����,�C��,���x,�C��,����,���ϕ���,�ő�u�ԕ���,�ő厞����,���˗�,�I�_���x,�n�����x,�ő啗���N��,DTYPE
"23/09/06","00:10",0.0,25.4,83.2,1002.2,328.0,1.0,1.6,310.1,0.00,22.4,26.3,"00:02:48",1
"23/09/06","00:20",0.0,25.5,83.0,1002.2,317.2,0.8,1.7,337.0,0.00,22.4,26.4,"00:17:28",1
"23/09/06","00:30",0.0,25.4,83.1,1001.9,330.2,0.8,1.3,328.1,0.00,22.4,26.3,"00:27:36",1
"23/09/06","00:40",0.0,25.4,83.1,1001.7,326.5,1.0,1.7,330.2,0.00,22.4,26.1,"00:36:48",1
"23/09/06","00:50",0.0,25.5,83.2,1001.7,350.4,0.6,1.2,334.1,0.00,22.5,26.3,"00:40:24",1
"23/09/06","01:00",0.0,25.3,83.5,1002.2,330.2,0.8,1.2,331.6,0.00,22.3,26.3,"00:50:32",1
"23/09/06","01:10",0.0,25.2,83.8,1001.9,318.0,0.7,1.1,330.4,0.00,22.3,26.1,"01:07:12",1
"23/09/06","01:20",0.0,25.2,84.0,1002.2,312.8,1.0,1.8,331.8,0.00,22.3,26.2,"01:11:44",1
"23/09/06","01:30",0.0,25.2,84.1,1001.9,290.7,0.8,1.8,342.7,0.00,22.4,26.2,"01:27:36",1
"23/09/06","01:40",0.0,25.2,84.2,1001.7,305.2,0.6,1.6,325.1,0.00,22.4,26.1,"01:33:52",1
"23/09/06","01:50",0.0,25.2,84.3,1001.9,334.1,0.7,1.7,340.3,0.00,22.4,26.2,"01:46:00",1
"23/09/06","02:00",0.0,25.3,84.4,1002.2,340.2,1.1,1.7,350.1,0.00,22.5,26.0,"01:54:00",1
"23/09/06","02:10",0.0,25.3,84.4,1001.7,309.9,1.0,1.4,340.1,0.00,22.5,26.1,"02:01:20",1
"23/09/06","02:20",0.0,25.4,84.2,1002.2,309.3,0.7,1.1,337.2,0.00,22.6,26.2,"02:13:44",1
"23/09/06","02:30",0.0,25.3,84.3,1001.9,299.1,0.6,1.0,317.3,0.00,22.5,26.1,"02:22:00",1
"23/09/06","02:40",0.0,25.3,84.3,1002.2,308.1,0.6,1.4,317.6,0.00,22.5,26.2,"02:36:56",1
"23/09/06","02:50",0.0,25.3,84.4,1001.9,303.3,0.6,1.0,306.5,0.00,22.5,26.0,"02:40:08",1
"23/09/06","03:00",0.0,25.4,84.6,1001.7,326.4,0.6,1.1,343.1,0.00,22.7,25.8,"02:57:20",1
"23/09/06","03:10",0.0,25.3,84.9,1001.5,285.3,0.2,0.8,311.8,0.00,22.6,26.1,"03:01:20",1
"23/09/06","03:20",0.0,25.1,85.2,1001.9,288.1,0.3,1.4,324.2,0.00,22.5,26.0,"03:19:44",1
"23/09/06","03:30",0.0,25.2,85.6,1001.7,326.7,0.8,1.3,340.2,0.00,22.7,25.9,"03:21:20",1
"23/09/06","03:40",0.0,25.0,86.0,1001.7,305.1,0.5,0.6,306.4,0.00,22.5,25.9,"03:36:24",1
"23/09/06","03:50",0.0,24.9,86.3,1001.5,285.7,0.7,1.2,327.2,0.00,22.5,26.0,"03:46:00",1
"23/09/06","04:00",0.0,24.9,86.3,1001.2,299.7,0.7,1.3,337.0,0.00,22.5,26.0,"03:55:52",1
"23/09/06","04:10",0.0,24.9,86.2,1001.5,299.0,0.6,1.2,346.5,0.00,22.5,25.8,"04:08:48",1
"23/09/06","04:20",0.0,25.0,85.9,1001.5,328.6,1.2,2.1,330.4,0.00,22.5,26.0,"04:14:40",1
"23/09/06","04:30",0.0,25.2,85.3,1001.2,329.3,1.3,2.0,338.7,0.00,22.6,25.7,"04:28:24",1
"23/09/06","04:40",0.0,25.3,84.7,1001.5,336.4,1.6,2.8,350.2,0.00,22.6,25.8,"04:32:16",1
"23/09/06","04:50",0.0,25.5,83.9,1001.5,322.4,1.3,3.1,346.0,0.00,22.6,25.9,"04:47:12",1
"23/09/06","05:00",0.0,25.6,83.5,1001.2,336.8,1.2,1.9,350.7,0.00,22.6,25.8,"04:50:08",1
"23/09/06","05:10",0.0,25.4,83.5,1001.5,308.5,1.1,1.9,325.5,0.00,22.4,25.8,"05:01:12",1
"23/09/06","05:20",0.0,25.3,83.4,1001.2,323.9,1.5,2.6,343.8,0.00,22.3,25.8,"05:18:48",1
"23/09/06","05:30",0.0,25.3,83.3,1001.2,302.4,1.1,3.1,333.4,0.00,22.3,25.9,"05:20:08",1
"23/09/06","05:40",0.0,25.2,83.6,1001.7,295.2,0.8,1.6,321.5,0.00,22.3,25.7,"05:34:24",1
"23/09/06","05:50",0.0,25.1,83.9,1001.2,294.7,0.8,1.8,257.4,0.00,22.2,26.0,"05:42:08",1
"23/09/06","06:00",0.0,25.2,84.0,1001.7,302.1,1.1,2.0,322.6,0.00,22.3,25.7,"05:59:36",1
"23/09/06","06:10",0.0,25.4,84.1,1001.7,323.0,1.1,2.4,344.3,0.00,22.6,25.6,"06:06:56",1
"23/09/06","06:20",0.0,25.2,84.6,1001.5,325.4,1.0,2.1,323.9,0.00,22.5,25.5,"06:18:16",1
"23/09/06","06:30",0.0,25.4,84.7,1001.9,325.7,1.6,3.2,327.5,0.00,22.7,25.8,"06:25:52",1
"23/09/06","06:40",0.0,25.4,84.6,1002.2,340.2,1.5,2.5,349.3,0.00,22.7,25.7,"06:31:44",1
"23/09/06","06:50",0.0,25.5,84.3,1001.7,338.4,1.3,3.1,351.2,0.01,22.7,25.8,"06:47:04",1
"23/09/06","07:00",0.0,25.6,83.9,1002.2,316.6,1.3,2.1,322.5,0.01,22.7,25.6,"06:55:20",1
"23/09/06","07:10",0.0,25.8,83.6,1001.9,306.7,1.1,1.8,308.3,0.02,22.9,25.6,"07:08:32",1
"23/09/06","07:20",0.0,26.0,83.3,1001.7,308.4,1.2,2.2,314.3,0.03,23.0,25.7,"07:16:16",1
"23/09/06","07:30",0.0,26.3,82.8,1001.7,310.5,1.3,2.6,343.7,0.06,23.2,25.7,"07:23:52",1
"23/09/06","07:40",0.0,26.7,82.0,1001.9,298.2,1.1,2.2,312.4,0.08,23.4,25.7,"07:33:20",1
"23/09/06","07:50",0.0,26.9,81.3,1001.5,291.7,0.7,1.4,262.3,0.08,23.5,25.9,"07:41:12",1
"23/09/06","08:00",0.0,27.2,80.5,1001.7,304.7,0.7,1.8,344.1,0.07,23.6,25.7,"07:55:28",1
"23/09/06","08:10",0.0,27.4,79.4,1001.5,293.2,0.6,1.9,241.8,0.08,23.6,25.7,"08:02:40",1
"23/09/06","08:20",0.0,27.6,78.8,1001.5,314.4,0.7,1.3,326.7,0.08,23.6,25.8,"08:10:08",1
"23/09/06","08:30",0.0,27.6,78.1,1001.5,314.2,1.0,2.1,354.6,0.07,23.5,25.8,"08:27:20",1
"23/09/06","08:40",0.0,27.7,77.6,1001.2,323.0,1.1,1.9,325.0,0.08,23.5,25.6,"08:36:40",1
"23/09/06","08:50",0.0,27.9,77.7,1000.8,321.3,1.1,2.7,324.7,0.09,23.7,25.7,"08:40:40",1
"23/09/06","09:00",0.0,28.2,77.5,1001.0,327.4,1.2,3.4,354.8,0.12,23.9,25.7,"08:52:32",1
"23/09/06","09:10",0.0,28.5,76.4,1000.5,322.8,1.1,4.5,343.3,0.17,24.0,25.7,"09:08:48",1
"23/09/06","09:20",0.0,28.9,75.0,1000.5,337.5,1.2,2.8,340.5,0.18,24.1,25.8,"09:15:28",1
"23/09/06","09:30",0.0,29.4,73.4,1001.0,287.5,0.7,2.1,240.6,0.19,24.2,25.8,"09:26:40",1
"23/09/06","09:40",0.0,29.6,71.7,1001.2,261.3,0.7,2.0,248.9,0.16,24.0,25.7,"09:33:12",1
"23/09/06","09:50",0.0,29.9,71.8,1001.5,234.9,0.6,1.9,230.1,0.15,24.3,25.8,"09:42:00",1
"23/09/06","10:00",0.0,29.9,70.6,1001.9,246.4,1.1,2.9,236.1,0.18,24.0,26.0,"09:50:02",1
"23/09/06","10:10",0.0,30.2,70.2,1001.9,298.6,1.0,2.5,296.9,0.23,24.2,26.0,"10:04:00",1
"23/09/06","10:20",0.0,30.5,69.8,1001.9,278.2,0.6,1.8,238.6,0.23,24.4,26.0,"10:11:04",1
"23/09/06","10:30",0.0,30.9,67.4,1002.2,307.9,1.2,2.5,353.1,0.33,24.2,26.1,"10:27:44",1
"23/09/06","10:40",0.0,31.1,65.5,1002.4,261.9,1.0,2.1,235.9,0.30,23.9,26.2,"10:39:28",1
"23/09/06","10:50",0.0,31.1,65.6,1002.4,195.6,0.8,2.0,241.3,0.22,23.9,26.2,"10:42:08",1
"23/09/06","11:00",0.0,30.7,66.5,1002.2,314.5,1.1,3.7,318.7,0.14,23.8,26.3,"10:50:02",1
"23/09/06","11:10",0.0,30.3,69.6,1001.5,288.6,1.3,3.2,355.4,0.15,24.2,26.2,"11:00:16",1
"23/09/06","11:20",0.0,30.2,71.2,1001.0,298.7,1.3,4.4,234.8,0.18,24.4,26.2,"11:11:28",1
"23/09/06","11:30",0.0,30.2,71.9,1000.8,292.0,1.2,3.1,347.1,0.18,24.6,26.2,"11:22:40",1
"23/09/06","11:40",0.0,30.4,70.9,1001.0,300.9,0.8,2.9,228.3,0.20,24.6,26.4,"11:33:44",1
"23/09/06","11:50",0.0,30.8,69.0,1000.8,7.3,0.7,1.8,347.3,0.18,24.5,26.4,"11:44:00",1
"23/09/06","12:00",0.0,29.8,71.4,1000.8,123.1,1.5,3.2,101.4,0.10,24.1,26.4,"11:58:40",1
"23/09/06","12:10",0.0,29.0,76.0,1000.5,88.6,1.1,2.8,103.0,0.11,24.4,26.4,"12:02:08",1
"23/09/06","12:20",0.0,28.7,77.8,1000.3,128.7,1.0,2.4,87.6,0.13,24.5,26.4,"12:11:52",1
"23/09/06","12:30",0.0,28.4,77.6,1000.0,91.7,0.8,2.9,138.1,0.10,24.1,26.4,"12:20:48",1
"23/09/06","12:40",0.0,28.7,78.6,999.8,123.1,0.8,2.2,154.0,0.17,24.7,26.4,"12:32:56",1
"23/09/06","12:50",0.0,28.9,78.0,999.8,120.7,0.8,2.1,92.8,0.20,24.7,26.4,"12:49:12",1
"23/09/06","13:00",0.0,28.9,77.5,1000.0,136.9,0.6,1.7,158.1,0.13,24.6,26.7,"12:52:56",1
"23/09/06","13:10",1.6,27.3,79.4,999.6,310.2,1.6,4.0,324.4,0.01,23.5,26.6,"13:06:48",1
"23/09/06","13:20",3.6,26.3,83.6,999.6,22.2,0.8,4.0,324.1,0.01,23.3,26.5,"13:10:08",1
"23/09/06","13:30",0.2,26.1,85.8,999.6,211.4,1.5,3.3,215.1,0.05,23.6,26.4,"13:29:04",1
"23/09/06","13:40",0.2,25.9,87.1,1000.0,241.3,0.8,1.8,218.0,0.08,23.6,26.5,"13:30:56",1
"23/09/06","13:50",0.0,25.8,87.9,999.8,199.6,1.6,3.2,225.4,0.09,23.7,26.3,"13:46:16",1
"23/09/06","14:00",0.0,25.9,88.5,999.8,200.8,1.0,2.5,233.0,0.10,23.9,26.3,"13:53:36",1
"23/09/06","14:10",0.0,25.9,88.7,999.8,210.7,0.7,1.6,215.2,0.14,23.9,26.4,"14:04:56",1
"23/09/06","14:20",0.0,26.1,89.1,999.1,190.1,0.6,1.4,221.9,0.13,24.2,26.5,"14:13:04",1
"23/09/06","14:30",0.0,26.4,89.2,999.6,99.9,0.3,1.1,307.2,0.12,24.5,26.4,"14:29:36",1
"23/09/06","14:40",0.0,26.5,89.4,999.6,332.2,0.8,1.3,328.0,0.13,24.7,26.3,"14:31:12",1
"23/09/06","14:50",0.0,26.3,88.7,999.6,249.2,0.8,2.0,201.6,0.16,24.3,26.4,"14:49:12",1
"23/09/06","15:00",0.0,26.4,88.7,999.6,201.3,1.0,2.1,231.9,0.16,24.4,26.3,"14:55:52",1
"23/09/06","15:10",0.0,26.9,88.4,999.3,197.0,0.5,1.3,225.7,0.24,24.9,26.4,"15:00:56",1
"23/09/06","15:20",0.0,27.0,87.8,998.9,213.0,0.7,1.8,235.9,0.18,24.8,26.4,"15:16:00",1
"23/09/06","15:30",0.0,27.0,86.9,998.6,311.4,0.6,1.8,348.5,0.11,24.7,26.3,"15:29:28",1
"23/09/06","15:40",0.0,27.2,86.4,999.1,340.5,0.7,1.6,318.9,0.10,24.8,26.5,"15:36:32",1
"23/09/06","15:50",0.0,27.3,85.5,999.3,346.5,0.6,1.8,344.8,0.09,24.7,26.2,"15:49:44",1
"23/09/06","16:00",0.0,27.2,84.9,999.3,341.0,1.2,2.7,351.2,0.09,24.5,26.2,"15:53:36",1
"23/09/06","16:10",0.0,27.4,84.1,999.3,333.2,1.1,1.8,349.7,0.12,24.5,26.2,"16:07:44",1
"23/09/06","16:20",0.0,27.8,83.1,998.6,239.2,0.6,1.8,240.9,0.10,24.7,26.4,"16:16:00",1
"23/09/06","16:30",0.0,28.4,81.0,999.3,328.1,0.3,1.2,290.5,0.11,24.9,26.3,"16:29:12",1
"23/09/06","16:40",0.0,28.5,79.2,999.6,289.4,0.5,1.1,357.4,0.05,24.6,26.3,"16:37:28",1
"23/09/06","16:50",0.0,28.3,78.4,999.6,327.6,0.7,1.7,351.9,0.03,24.2,26.3,"16:48:48",1
"23/09/06","17:00",0.0,28.1,79.5,999.6,332.6,1.0,2.4,353.9,0.03,24.3,26.3,"16:50:32",1
"23/09/06","17:10",0.0,27.7,80.6,999.8,328.1,1.2,3.5,344.8,0.03,24.1,26.5,"17:03:44",1
"23/09/06","17:20",0.0,27.2,81.5,999.8,318.6,1.2,2.7,304.5,0.02,23.8,26.3,"17:16:56",1
"23/09/06","17:30",0.0,27.0,81.9,999.3,322.8,1.2,2.7,333.8,0.01,23.7,26.2,"17:22:00",1
"23/09/06","17:40",0.0,26.7,80.6,1000.3,326.3,1.8,3.4,327.5,0.01,23.1,26.3,"17:38:48",1
"23/09/06","17:50",0.0,26.6,79.6,1000.0,337.5,2.0,4.3,337.5,0.01,22.8,26.3,"17:40:48",1
"23/09/06","18:00",0.0,26.5,78.5,1000.0,338.7,2.0,3.9,344.6,0.00,22.5,26.3,"17:56:00",1
"23/09/06","18:10",0.0,26.3,78.3,999.8,331.4,1.8,4.2,326.4,0.00,22.3,26.4,"18:00:16",1
"23/09/06","18:20",0.0,26.2,78.7,1000.3,325.4,1.3,2.2,345.6,0.00,22.2,26.4,"18:14:16",1
"23/09/06","18:30",0.0,25.8,79.7,1000.0,297.5,0.6,1.0,276.2,0.00,22.1,26.4,"18:20:16",1
"23/09/06","18:40",0.0,25.3,80.7,1000.0,340.1,1.0,2.9,344.3,0.00,21.8,26.2,"18:39:04",1
"23/09/06","18:50",0.0,25.4,80.6,1000.5,340.3,2.1,4.0,338.3,0.00,21.9,26.1,"18:47:44",1
"23/09/06","19:00",0.0,25.5,79.8,1000.8,344.2,2.5,4.5,336.3,0.00,21.8,26.1,"18:52:40",1
"23/09/06","19:10",0.0,25.4,79.5,1001.0,348.3,1.6,3.1,343.3,0.00,21.6,26.0,"19:00:08",1
"23/09/06","19:20",0.0,25.3,79.7,1000.8,353.1,0.7,2.7,347.2,0.00,21.6,26.0,"19:10:16",1
"23/09/06","19:30",0.0,24.9,80.6,1001.5,347.7,0.6,1.6,352.5,0.00,21.4,26.0,"19:20:16",1
"23/09/06","19:40",0.0,24.4,81.4,1001.7,307.3,0.3,0.9,324.9,0.00,21.0,26.0,"19:37:36",1
"23/09/06","19:50",0.0,24.3,82.7,1001.7,337.0,1.0,2.1,335.3,0.00,21.2,26.1,"19:40:02",1
"23/09/06","20:00",0.0,24.4,83.2,1001.7,327.1,2.2,4.8,345.0,0.00,21.4,25.9,"19:59:44",1
"23/09/06","20:10",0.0,24.7,82.6,1001.9,339.8,2.0,4.3,351.1,0.00,21.6,25.9,"20:06:16",1
"23/09/06","20:20",0.0,24.8,81.9,1001.9,341.4,2.3,4.1,337.9,0.00,21.5,26.0,"20:18:24",1
"23/09/06","20:30",0.0,24.9,81.5,1001.9,336.6,2.1,3.6,339.4,0.00,21.6,25.8,"20:23:12",1
"23/09/06","20:40",0.0,24.8,81.8,1001.7,335.7,2.0,3.6,339.1,0.00,21.5,25.7,"20:31:44",1
"23/09/06","20:50",0.0,24.7,82.2,1001.9,330.7,1.8,3.5,346.6,0.00,21.5,25.7,"20:46:32",1
"23/09/06","21:00",0.0,24.6,82.4,1001.7,332.3,1.8,2.7,314.9,0.00,21.4,25.9,"20:55:36",1
"23/09/06","21:10",0.0,24.4,82.8,1001.9,331.9,1.7,3.4,335.4,0.00,21.3,25.7,"21:00:56",1
"23/09/06","21:20",0.0,24.3,83.4,1001.9,318.6,1.2,2.4,311.0,0.00,21.3,25.7,"21:17:12",1
"23/09/06","21:30",0.0,24.1,84.3,1001.9,322.7,1.6,2.4,338.7,0.00,21.3,25.6,"21:20:16",1
"23/09/06","21:40",0.0,24.0,84.9,1001.9,323.2,1.2,2.4,332.1,0.00,21.3,25.8,"21:34:48",1
"23/09/06","21:50",0.0,23.8,85.3,1001.9,326.5,0.6,1.8,334.6,0.00,21.2,25.7,"21:46:48",1
"23/09/06","22:00",0.0,23.4,85.8,1001.9,167.9,0.1,0.5,111.3,0.00,20.9,25.7,"21:51:36",1
"23/09/06","22:10",0.0,23.4,86.9,1002.2,318.4,1.2,2.6,354.6,0.00,21.1,25.5,"22:09:04",1
"23/09/06","22:20",0.0,23.4,87.7,1002.4,325.8,1.3,3.2,326.7,0.00,21.3,25.6,"22:10:24",1
"23/09/06","22:30",0.0,23.7,87.9,1002.2,343.2,1.5,3.1,329.9,0.00,21.6,25.6,"22:24:08",1
"23/09/06","22:40",0.0,23.7,87.9,1002.2,334.2,1.7,2.8,350.3,0.00,21.6,25.6,"22:31:52",1
"23/09/06","22:50",0.0,23.5,88.2,1001.9,331.6,1.6,3.3,337.9,0.00,21.5,25.6,"22:42:16",1
"23/09/06","23:00",0.0,23.4,88.4,1002.2,300.2,0.7,1.8,338.3,0.00,21.4,25.5,"22:50:24",1
"23/09/06","23:10",0.0,23.1,88.7,1001.9,160.1,0.2,0.6,212.2,0.00,21.2,25.4,"23:06:16",1
"23/09/06","23:20",0.0,23.0,89.1,1002.2,330.2,1.1,2.5,343.0,0.00,21.1,25.4,"23:17:44",1
"23/09/06","23:30",0.0,22.8,89.6,1001.9,342.5,0.8,1.7,320.3,0.00,21.0,25.3,"23:23:52",1
"23/09/06","23:40",0.0,22.9,90.1,1002.6,335.5,0.7,1.4,341.9,0.00,21.2,25.3,"23:33:20",1
"23/09/06","23:50",0.0,22.8,90.5,1002.2,328.7,1.2,1.9,340.6,0.00,21.2,25.3,"23:48:40",1
"23/09/06","24:00",0.0,22.8,90.8,1002.6,292.8,0.8,2.2,341.1,0.00,21.3,25.3,"23:50:40",1
